Station 45201 - Erie Islands Buoy Image indicating link to RSS feed of recent meteorological observations for station 45201


Conditions at 45201 as of
(2:20 pm EDT)
1820 GMT on 06/22/2024:
     

Click on the graph icon in the table below to see a time series plot of the last five days of that observation.

5-day plot - Wind Speed Wind Speed (WSPD): 11.7 kts
5-day plot - Wind Gust Wind Gust (GST): 17.5 kts
5-day plot - Wave Height Wave Height (WVHT): 1.3 ft
5-day plot - Dominant Wave Period Dominant Wave Period (DPD): 2 sec
5-day plot - Mean Wave Direction Mean Wave Direction (MWD):SSW ( 210 deg true )
5-day plot - Atmospheric Pressure Atmospheric Pressure (PRES):29.96 in
5-day plot - Air Temperature Air Temperature (ATMP): 86.7 °F
5-day plot - Water Temperature Water Temperature (WTMP): 80.1 °F
5-day plot - Dew Point Dew Point (DEWP): 69.3 °F
5-day plot - Heat Index Heat Index (HEAT): 91.0 °F
5-day plot - Wind Speed at 10 Meters Wind Speed at 10 meters (WSPD10M): 15.5 kts
5-day plot - Wind Speed at 20 Meters Wind Speed at 20 meters (WSPD20M): 17.5 kts
5-day plot -  Wind Speed, Wind Gust and Atmospheric Pressure Combined plot of Wind Speed, Gust, and Air Pressure
Previous observations
TIME
(EDT)
5-day plot - Wind Direction
WDIR
 
5-day plot - Wind Speed
WSPD
kts
5-day plot - Wind Gust
GST
kts
5-day plot - Wave Height
WVHT
ft
5-day plot - Dominant Wave Period
DPD
sec
5-day plot - Average Wave Period
APD
sec
5-day plot - Mean Wave Direction
MWD
 
5-day plot - Atmospheric Pressure
PRES
in
5-day plot - Pressure Tendency
PTDY
in
5-day plot - Air Temperature
ATMP
°F
5-day plot - Water Temperature
WTMP
°F
5-day plot - Dew Point
DEWP
°F
5-day plot - Salinity
SAL
psu
5-day plot - Visibility
VIS
nmi
5-day plot - Tide (above MLLW)
TIDE
ft
2024-06-22 02:10 pm- 7.8 17.5 1.0 2-SSE29.97- 85.8 80.2 71.1---
2024-06-22 02:00 pm- 9.7 13.6 1.0 2-SSW29.97-0.07 86.0 80.2 70.0---
2024-06-22 01:50 pm- 7.8 15.5 1.3 2- S29.98- 85.6 79.9 70.7---
2024-06-22 01:40 pm- 7.8 11.7 1.0 2-SSW29.98- 85.5 79.9 70.9---
2024-06-22 01:30 pm- 7.8 13.6 1.0 2- S29.99- 85.3 79.9 70.7---
2024-06-22 01:20 pm- 9.7 13.6 1.0 2- S29.99- 85.8 79.9 69.4---
2024-06-22 01:10 pm- 7.8 15.5 1.0 2- S30.00- 85.1 79.9 70.0---
2024-06-22 01:00 pm- 9.7 15.5 1.0 2- S30.00-0.06 85.3 79.7 70.0---
2024-06-22 12:50 pm- 7.8 11.7 1.0 2-SSW30.01- 84.7 79.7 70.5---
2024-06-22 12:40 pm- 7.8 11.7 1.0 2- SW30.01- 84.4 79.7 71.4---
2024-06-22 12:30 pm- 7.8 11.7 1.0 2- S30.02- 83.5 79.7 71.8---
2024-06-22 12:20 pm- 5.8 9.7 1.0 2-SSE30.02- 82.9 79.3 72.5---
2024-06-22 12:10 pm- 5.8 11.7 1.0 3- SE30.03- 82.6 79.3 72.9---
2024-06-22 12:00 pm- 5.8 7.8 1.0 2- N30.03-0.04 82.4 79.3 72.7---
2024-06-22 11:50 am- 5.8 11.7 1.0 2- S30.03- 83.1 79.3 72.1---
2024-06-22 11:40 am- 5.8 7.8 1.0 2-SSW30.03- 83.1 79.3 72.1---
2024-06-22 11:30 am- 5.8 9.7 1.0 2-NNE30.04- 83.1 79.2 71.8---
2024-06-22 11:20 am- 7.8 11.7 1.0 2- SE30.04- 82.9 79.2 71.6---
2024-06-22 11:10 am- 5.8 7.8 0.7-- SW30.04- 82.4 79.0 72.3---
2024-06-22 11:00 am- 5.8 7.8 1.0 2-ENE30.05-0.03 81.9 78.8 73.0---
2024-06-22 10:50 am- 5.8 9.7 0.7-- SW30.05- 81.9 78.8 72.5---
2024-06-22 10:40 am- 5.8 7.8 0.7-- S30.05- 81.5 78.6 73.0---
2024-06-22 10:30 am- 7.8 9.7 0.7--WSW30.05- 81.5 78.6 72.7---
2024-06-22 10:20 am- 7.8 11.7 0.7--SSE30.05- 81.9 78.6 71.8---
2024-06-22 10:10 am- 7.8 9.7 0.7-- SW30.05- 81.5 78.6 72.3---
2024-06-22 10:00 am- 7.8 9.7 0.7-- SW30.06- 81.5 78.6 72.3---
2024-06-22 09:50 am- 5.8 7.8 0.7--WSW30.06- 81.1 78.4 72.7---
2024-06-22 09:40 am- 5.8 7.8 0.7-- SW30.06- 80.6 78.4 73.0---
2024-06-22 09:30 am- 5.8 7.8 0.7-- S30.07- 80.2 78.4 74.1---
2024-06-22 09:20 am- 5.8 7.8 0.7-- SW30.07- 80.1 78.4 73.9---
2024-06-22 09:10 am- 5.8 7.8 0.7-- SW30.07- 79.9 78.3 73.9---
2024-06-22 09:00 am- 7.8 9.7 0.3--SSW30.07-0.02 80.1 78.3 73.0---
2024-06-22 08:50 am- 5.8 7.8 0.3-- SW30.07- 80.1 78.3 72.9---
2024-06-22 08:40 am- 5.8 7.8 0.3--SSW30.07- 79.5 78.3 73.6---
2024-06-22 08:30 am- 3.9 5.8 0.3--SSW30.07- 79.2 78.3 74.1---
2024-06-22 08:20 am- 3.9 5.8 0.3-- S30.07- 79.0 78.3 73.9---
2024-06-22 08:10 am- 5.8 5.8 0.3-- S30.08- 78.6 78.3 73.8---
2024-06-22 08:00 am- 5.8 5.8 0.3-- S30.08+0.00 78.3 78.3 73.9---
2024-06-22 07:50 am- 5.8 5.8 0.3-- S30.08- 78.1 78.3 73.9---
2024-06-22 07:40 am- 3.9 5.8 0.7-- SW30.08- 77.7 78.1 74.3---
2024-06-22 07:30 am- 3.9 5.8 0.7--SSW30.08- 77.4 78.1 74.1---
2024-06-22 07:20 am- 3.9 5.8 0.7--SSW30.09- 77.4 78.1 74.1---
2024-06-22 07:10 am- 3.9 5.8 0.7--SSW30.09- 77.5 78.1 74.3---
2024-06-22 06:50 am- 3.9 3.9 0.7--SSW30.09- 77.5 78.1 74.1---
2024-06-22 06:40 am- 3.9 5.8 0.7-- SW30.09- 77.5 78.1 74.3---
2024-06-22 06:30 am- 1.9 3.9 0.7-- SW30.09- 77.7 78.1 74.7---
2024-06-22 06:20 am- 1.9 1.9 0.3--SSE30.09- 77.7 78.1 74.5---
2024-06-22 06:10 am- 1.9 3.9 0.3--SSE30.09- 77.7 78.3 74.5---
2024-06-22 06:00 am- 3.9 5.8 0.3--ESE30.09+0.00 77.7 78.3 74.3---
2024-06-22 05:40 am- 3.9 5.8 0.3-- E30.08- 77.5 78.3 74.3---
2024-06-22 05:30 am- 3.9 3.9 0.3-- E30.08- 77.5 78.3 74.3---
2024-06-22 05:20 am- 3.9 5.8 0.3-- E30.08- 77.5 78.3 74.5---
2024-06-22 05:10 am- 3.9 5.8 0.3-- E30.08- 77.7 78.3 74.3---
2024-06-22 05:00 am- 5.8 5.8 0.3--ESE30.08-0.02 77.7 78.3 74.3---
2024-06-22 04:50 am- 3.9 5.8 0.3-- E30.08- 77.7 78.3 73.9---
2024-06-22 04:40 am- 3.9 3.9 0.3--ENE30.09- 77.5 78.3 73.6---
2024-06-22 04:30 am- 3.9 5.8 0.3-- E30.09- 77.7 78.3 73.6---
2024-06-22 04:20 am- 3.9 3.9 0.3-- E30.09- 77.7 78.3 73.4---
2024-06-22 04:10 am- 3.9 5.8 0.3-- E30.08- 77.5 78.3 73.6---
2024-06-22 04:00 am- 3.9 5.8 0.3--ENE30.09-0.02 77.9 78.3 74.1---
2024-06-22 03:50 am- 5.8 7.8 0.3-- NE30.09- 77.9 78.4 74.1---
2024-06-22 03:40 am- 5.8 5.8 0.3-- NE30.09- 77.9 78.4 74.1---
2024-06-22 03:30 am- 5.8 5.8 0.3-- NE30.09- 77.9 78.4 74.1---
2024-06-22 03:20 am- 5.8 5.8 0.3-- NE30.09- 77.9 78.4 74.1---
2024-06-22 03:10 am- 5.8 7.8 0.3-- NE30.09- 77.9 78.6 74.1---
2024-06-22 03:00 am- 5.8 7.8 0.3-- NE30.09-0.03 77.9 78.6 74.3---
2024-06-22 02:50 am- 5.8 7.8 0.3-- NE30.09- 78.1 78.6 74.1---
2024-06-22 02:40 am- 3.9 5.8 0.3--NNE30.09- 77.9 78.8 73.6---
2024-06-22 02:30 am- 3.9 5.8 0.3-- NE30.10- 77.9 78.8 73.8---
2024-06-22 02:20 am- 3.9 5.8 0.3-- NE30.10- 78.1 78.8 73.4---
2024-06-22 02:10 am- 3.9 5.8 0.3-- NE30.10- 77.9 78.8 73.6---
2024-06-22 02:00 am- 3.9 3.9 0.3--NNE30.10-0.03 77.9 78.8 73.9---
2024-06-22 01:50 am- 3.9 5.8 0.3-- N30.10- 78.1 78.8 73.8---
2024-06-22 01:40 am- 5.8 5.8 0.3-- NE30.10- 78.1 78.8 74.1---
2024-06-22 01:30 am- 5.8 5.8 0.3-- NE30.10- 78.1 78.8 74.3---
2024-06-22 01:20 am- 5.8 5.8 0.3--NNE30.10- 78.1 78.8 74.1---
2024-06-22 01:10 am- 5.8 5.8 0.3-- NE30.10- 78.3 78.8 73.9---
2024-06-22 01:00 am- 5.8 7.8 0.3--ENE30.11-0.02 78.3 78.8 74.1---
2024-06-22 12:50 am- 5.8 7.8 0.3-- NE30.11- 78.3 78.8 74.3---
2024-06-22 12:40 am- 5.8 7.8 0.3--SSE30.11- 78.4 78.8 74.3---
2024-06-22 12:30 am- 5.8 7.8 0.3--SSE30.11- 78.8 78.8 73.8---
2024-06-22 12:20 am- 5.8 7.8 0.3--SSE30.12- 78.6 78.8 74.3---
2024-06-22 12:10 am- 5.8 7.8 0.3-- SE30.12- 78.6 78.8 74.5---
2024-06-22 12:00 am- 7.8 9.7 0.3--NNE30.12+0.00 78.4 78.8 74.7---
2024-06-21 11:50 pm- 7.8 9.7 0.3-- W30.12- 78.6 78.8 74.7---
2024-06-21 11:40 pm- 3.9 7.8 0.3--ESE30.12- 78.8 78.8 75.2---
2024-06-21 11:30 pm- 3.9 5.8 0.3--WSW30.13- 78.8 78.8 75.0---
2024-06-21 11:20 pm- 5.8 5.8 0.3-- SE30.13- 78.4 78.8 75.2---
2024-06-21 11:10 pm- 5.8 9.7 0.3-- E30.13- 78.8 79.0 74.7---
2024-06-21 11:00 pm- 3.9 5.8 0.3-- E30.13+0.01 78.8 79.0 74.7---
2024-06-21 10:50 pm- 1.9 3.9 0.3-- SE30.13- 79.0 78.8 75.2---
2024-06-21 10:40 pm- 1.9 3.9 0.3--SSW30.13- 79.2 78.8 74.8---
2024-06-21 10:30 pm- 1.9 3.9 0.3--NNE30.13- 79.2 78.8 74.8---
2024-06-21 10:20 pm- 3.9 5.8 0.3--WSW30.13- 79.2 78.8 74.8---
2024-06-21 10:10 pm- 3.9 5.8 0.3--SSW30.13- 79.2 78.6 74.7---
2024-06-21 10:00 pm- 3.9 5.8 0.3--WNW30.13+0.01 79.3 78.6 74.3---
2024-06-21 09:50 pm- 3.9 5.8 0.7--SSW30.13- 79.3 78.6 73.9---
2024-06-21 09:40 pm- 3.9 5.8 0.7-- W30.13- 79.5 78.6 73.6---
2024-06-21 09:30 pm- 5.8 5.8 0.7--WSW30.13- 79.5 78.6 73.4---
2024-06-21 09:20 pm- 5.8 7.8 0.7--WNW30.12- 79.5 78.6 73.4---
2024-06-21 09:10 pm- 3.9 5.8 0.7--SSW30.13- 79.5 78.6 73.2---
2024-06-21 09:00 pm- 3.9 5.8 0.7-- SE30.13+0.00 79.7 78.8 73.0---
2024-06-21 08:50 pm- 5.8 7.8 0.7--SSW30.13- 79.5 78.8 73.6---
2024-06-21 08:40 pm- 5.8 5.8 0.7-- SE30.13- 79.3 78.8 73.6---
2024-06-21 08:30 pm- 5.8 5.8 0.7-- NW30.13- 79.2 78.8 73.9---
2024-06-21 08:20 pm- 5.8 7.8 0.7--SSW30.13- 79.2 78.8 74.1---
2024-06-21 08:10 pm- 7.8 9.7 0.7--SSE30.12- 79.3 78.8 73.6---
2024-06-21 08:00 pm- 7.8 9.7 0.7-- SE30.12-0.03 79.2 78.8 73.9---
2024-06-21 07:50 pm- 7.8 9.7 0.7-- S30.11- 79.2 78.8 73.9---
2024-06-21 07:40 pm- 7.8 9.7 0.7-- SW30.11- 79.2 79.0 73.8---
2024-06-21 07:30 pm- 7.8 9.7 0.7--SSE30.11- 79.3 79.2 73.8---
2024-06-21 07:20 pm- 7.8 9.7 0.7--SSW30.11- 79.5 79.2 73.4---
2024-06-21 07:10 pm- 5.8 7.8 0.7--SSW30.11- 79.5 79.0 73.4---
2024-06-21 07:00 pm- 5.8 7.8 0.7-- W30.12-0.06 79.5 79.2 73.8---
2024-06-21 06:50 pm- 5.8 9.7 0.7--ESE30.12- 79.5 79.2 73.4---
2024-06-21 06:40 pm- 7.8 9.7 0.7-- S30.12- 79.5 79.3 73.2---
2024-06-21 06:30 pm- 7.8 9.7 0.7-- SW30.12- 79.7 79.3 73.0---
2024-06-21 06:20 pm- 5.8 7.8 1.0 3- SW30.12- 80.4 79.3 72.7---
2024-06-21 06:10 pm- 5.8 7.8 1.0 2- SW30.12- 80.4 79.5 72.5---
2024-06-21 06:00 pm- 5.8 7.8 0.7-- S30.13-0.07 80.1 79.5 72.7---
2024-06-21 05:50 pm- 7.8 9.7 0.7-- S30.13- 79.9 79.3 72.7---
2024-06-21 05:40 pm- 5.8 7.8 0.7-- S30.14- 79.7 79.2 72.3---
2024-06-21 05:30 pm- 5.8 7.8 0.7-- W30.14- 79.3 79.2 72.3---
2024-06-21 05:20 pm- 7.8 9.7 0.7-- SW30.14- 79.0 79.2 72.5---
2024-06-21 05:10 pm- 7.8 11.7 0.7-- SW30.15- 79.0 79.3 72.9---
2024-06-21 05:00 pm- 5.8 9.7 0.7-- S30.15-0.07 79.0 79.3 73.2---
2024-06-21 04:50 pm- 7.8 9.7 1.0 2- S30.15- 78.8 79.3 73.2---
2024-06-21 04:40 pm- 5.8 9.7 1.0--SSE30.16- 78.4 79.5 73.2---
2024-06-21 04:30 pm- 7.8 9.7 1.0 2-SSE30.16- 78.6 79.7 73.6---
2024-06-21 04:20 pm- 7.8 11.7 1.0 2- S30.17- 78.6 80.1 73.6---
2024-06-21 04:10 pm- 13.6 19.4 0.7--SSW30.18- 78.4 80.1 73.9---
2024-06-21 04:00 pm- 9.7 19.4 0.7--WSW30.18- 79.5 80.2 73.9---
2024-06-21 03:50 pm- 5.8 7.8 0.7-- S30.19- 79.3 79.5 73.9---
2024-06-21 03:40 pm- 5.8 7.8 0.7-- S30.19- 79.0 79.3 73.6---
2024-06-21 03:30 pm- 7.8 9.7 0.7-- SW30.19- 78.4 79.3 73.2---
2024-06-21 03:20 pm- 7.8 11.7 1.0 2-SSW30.19- 78.1 79.5 73.0---
2024-06-21 03:10 pm- 7.8 9.7 0.7--SSW30.19- 77.9 79.5 73.2---
2024-06-21 03:00 pm- 7.8 11.7 0.7-- SE30.19-0.06 77.7 79.5 73.4---
2024-06-21 02:50 pm- 7.8 9.7 0.7--SSE30.19- 78.3 79.5 73.0---
2024-06-21 02:40 pm- 7.8 9.7 0.7--SSW30.20- 77.9 79.5 73.0---
2024-06-21 02:30 pm- 7.8 9.7 0.7--SSE30.20- 77.5 79.7 73.0---
2024-06-21 02:20 pm- 7.8 9.7 0.7--SSW30.21- 77.4 79.9 73.0---
2024-06-21 02:10 pm- 7.8 9.7 0.7-- SE30.22- 77.4 79.9 73.2---
2024-06-21 02:00 pm- 5.8 7.8 0.7--SSE30.22-0.03 77.4 80.1 73.0---
2024-06-21 01:50 pm- 3.9 7.8 1.0 3-SSE30.23- 77.4 79.9 73.0---

Detailed Wave Summary
for 45201 as of (2:20 pm EDT)
1820 GMT on 06/22/2024:

These wave data are displayed in rounded times.

     

Click on the graph icon in the table below to see a time series plot of the last five days of that observation.

5-day plot - Significant Wave Height Significant Wave Height (WVHT): 1.3 ft
Previous observations
TIME
(EDT)
5-day plot - Wave Height
WVHT
ft
5-day plot - Swell Height
SwH
ft
5-day plot - Swell Period
SwP
sec
5-day plot - Swell Direction
SwD
 
5-day plot - Wind Wave Height
WWH
ft
5-day plot - Wind Wave Period
WWP
sec
5-day plot - Wind Wave Direction
WWD
 
5-day plot - Wave Steepness
STEEPNESS
 
5-day plot - Average Wave Period
APD
sec
2024-06-22 02:10 pm 1.0------ N/A-
2024-06-22 02:00 pm 1.0------ N/A-
2024-06-22 01:50 pm 1.3------ N/A-
2024-06-22 01:40 pm 1.0------ N/A-
2024-06-22 01:30 pm 1.0------ N/A-
2024-06-22 01:20 pm 1.0------ N/A-
2024-06-22 01:10 pm 1.0------ N/A-
2024-06-22 01:00 pm 1.0------ N/A-
2024-06-22 12:50 pm 1.0------ N/A-
2024-06-22 12:40 pm 1.0------ N/A-
2024-06-22 12:30 pm 1.0------ N/A-
2024-06-22 12:20 pm 1.0------ N/A-
2024-06-22 12:10 pm 1.0------ N/A-
2024-06-22 12:00 pm 1.0------ N/A-
2024-06-22 11:50 am 1.0------ N/A-
2024-06-22 11:40 am 1.0------ N/A-
2024-06-22 11:30 am 1.0------ N/A-
2024-06-22 11:20 am 1.0------ N/A-
2024-06-22 11:10 am 0.7------ N/A-
2024-06-22 11:00 am 1.0------ N/A-
2024-06-22 10:50 am 0.7------ N/A-
2024-06-22 10:40 am 0.7------ N/A-
2024-06-22 10:30 am 0.7------ N/A-
2024-06-22 10:20 am 0.7------ N/A-
2024-06-22 10:10 am 0.7------ N/A-
2024-06-22 10:00 am 0.7------ N/A-
2024-06-22 09:50 am 0.7------ N/A-
2024-06-22 09:40 am 0.7------ N/A-
2024-06-22 09:30 am 0.7------ N/A-
2024-06-22 09:20 am 0.7------ N/A-
2024-06-22 09:10 am 0.7------ N/A-
2024-06-22 09:00 am 0.3------ N/A-
2024-06-22 08:50 am 0.3------ N/A-
2024-06-22 08:40 am 0.3------ N/A-
2024-06-22 08:30 am 0.3------ N/A-
2024-06-22 08:20 am 0.3------ N/A-
2024-06-22 08:10 am 0.3------ N/A-
2024-06-22 08:00 am 0.3------ N/A-
2024-06-22 07:50 am 0.3------ N/A-
2024-06-22 07:40 am 0.7------ N/A-
2024-06-22 07:30 am 0.7------ N/A-
2024-06-22 07:20 am 0.7------ N/A-
2024-06-22 07:10 am 0.7------ N/A-
2024-06-22 06:50 am 0.7------ N/A-
2024-06-22 06:40 am 0.7------ N/A-
2024-06-22 06:30 am 0.7------ N/A-
2024-06-22 06:20 am 0.3------ N/A-
2024-06-22 06:10 am 0.3------ N/A-
2024-06-22 06:00 am 0.3------ N/A-
2024-06-22 05:40 am 0.3------ N/A-
2024-06-22 05:30 am 0.3------ N/A-
2024-06-22 05:20 am 0.3------ N/A-
2024-06-22 05:10 am 0.3------ N/A-
2024-06-22 05:00 am 0.3------ N/A-
2024-06-22 04:50 am 0.3------ N/A-
2024-06-22 04:40 am 0.3------ N/A-
2024-06-22 04:30 am 0.3------ N/A-
2024-06-22 04:20 am 0.3------ N/A-
2024-06-22 04:10 am 0.3------ N/A-
2024-06-22 04:00 am 0.3------ N/A-
2024-06-22 03:50 am 0.3------ N/A-
2024-06-22 03:40 am 0.3------ N/A-
2024-06-22 03:30 am 0.3------ N/A-
2024-06-22 03:20 am 0.3------ N/A-
2024-06-22 03:10 am 0.3------ N/A-
2024-06-22 03:00 am 0.3------ N/A-
2024-06-22 02:50 am 0.3------ N/A-
2024-06-22 02:40 am 0.3------ N/A-
2024-06-22 02:30 am 0.3------ N/A-
2024-06-22 02:20 am 0.3------ N/A-
2024-06-22 02:10 am 0.3------ N/A-
2024-06-22 02:00 am 0.3------ N/A-
2024-06-22 01:50 am 0.3------ N/A-
2024-06-22 01:40 am 0.3------ N/A-
2024-06-22 01:30 am 0.3------ N/A-
2024-06-22 01:20 am 0.3------ N/A-
2024-06-22 01:10 am 0.3------ N/A-
2024-06-22 01:00 am 0.3------ N/A-
2024-06-22 12:50 am 0.3------ N/A-
2024-06-22 12:40 am 0.3------ N/A-
2024-06-22 12:30 am 0.3------ N/A-
2024-06-22 12:20 am 0.3------ N/A-
2024-06-22 12:10 am 0.3------ N/A-
2024-06-22 12:00 am 0.3------ N/A-
2024-06-21 11:50 pm 0.3------ N/A-
2024-06-21 11:40 pm 0.3------ N/A-
2024-06-21 11:30 pm 0.3------ N/A-
2024-06-21 11:20 pm 0.3------ N/A-
2024-06-21 11:10 pm 0.3------ N/A-
2024-06-21 11:00 pm 0.3------ N/A-
2024-06-21 10:50 pm 0.3------ N/A-
2024-06-21 10:40 pm 0.3------ N/A-
2024-06-21 10:30 pm 0.3------ N/A-
2024-06-21 10:20 pm 0.3------ N/A-
2024-06-21 10:10 pm 0.3------ N/A-
2024-06-21 10:00 pm 0.3------ N/A-
2024-06-21 09:50 pm 0.7------ N/A-
2024-06-21 09:40 pm 0.7------ N/A-
2024-06-21 09:30 pm 0.7------ N/A-
2024-06-21 09:20 pm 0.7------ N/A-
2024-06-21 09:10 pm 0.7------ N/A-
2024-06-21 09:00 pm 0.7------ N/A-
2024-06-21 08:50 pm 0.7------ N/A-
2024-06-21 08:40 pm 0.7------ N/A-
2024-06-21 08:30 pm 0.7------ N/A-
2024-06-21 08:20 pm 0.7------ N/A-
2024-06-21 08:10 pm 0.7------ N/A-
2024-06-21 08:00 pm 0.7------ N/A-
2024-06-21 07:50 pm 0.7------ N/A-
2024-06-21 07:40 pm 0.7------ N/A-
2024-06-21 07:30 pm 0.7------ N/A-
2024-06-21 07:20 pm 0.7------ N/A-
2024-06-21 07:10 pm 0.7------ N/A-
2024-06-21 07:00 pm 0.7------ N/A-
2024-06-21 06:50 pm 0.7------ N/A-
2024-06-21 06:40 pm 0.7------ N/A-
2024-06-21 06:30 pm 0.7------ N/A-
2024-06-21 06:20 pm 1.0------ N/A-
2024-06-21 06:10 pm 0.7------ N/A-
2024-06-21 06:00 pm 0.7------ N/A-
2024-06-21 05:50 pm 0.7------ N/A-
2024-06-21 05:40 pm 0.7------ N/A-
2024-06-21 05:30 pm 0.7------ N/A-
2024-06-21 05:20 pm 0.7------ N/A-
2024-06-21 05:10 pm 0.7------ N/A-
2024-06-21 05:00 pm 0.7------ N/A-
2024-06-21 04:50 pm 1.0------ N/A-
2024-06-21 04:40 pm 1.0------ N/A-
2024-06-21 04:30 pm 1.0------ N/A-
2024-06-21 04:20 pm 1.0------ N/A-
2024-06-21 04:10 pm 0.7------ N/A-
2024-06-21 04:00 pm 0.7------ N/A-
2024-06-21 03:50 pm 0.7------ N/A-
2024-06-21 03:40 pm 0.7------ N/A-
2024-06-21 03:30 pm 0.7------ N/A-
2024-06-21 03:20 pm 1.0------ N/A-
2024-06-21 03:10 pm 0.7------ N/A-
2024-06-21 03:00 pm 0.7------ N/A-
2024-06-21 02:50 pm 0.7------ N/A-
2024-06-21 02:40 pm 0.7------ N/A-
2024-06-21 02:30 pm 0.7------ N/A-
2024-06-21 02:20 pm 0.7------ N/A-
2024-06-21 02:10 pm 0.7------ N/A-
2024-06-21 02:00 pm 0.7------ N/A-
2024-06-21 01:50 pm 1.0------ N/A-

Solar Radiation Conditions at 45201 as of
(2:20 pm EDT)
1820 GMT on 06/22/2024:
     

Click on the graph icon in the table below to see a time series plot of the last five days of that observation.

5-day plot - Short Wave Radiation 1 Short Wave Radiation 1 (SRAD1): 393.3watts/meter2
Previous observations
TIME
(EDT)
5-day plot - Short Wave Radiation 1
SRAD1
w/m2
5-day plot - Short Wave Radiation 2
SRAD2
w/m2
5-day plot - Long Wave Radiation
LRAD
w/m2
2024-06-22 02:10 pm 780.9--
2024-06-22 02:00 pm 814.0--
2024-06-22 01:50 pm 888.0--
2024-06-22 01:40 pm 745.0--
2024-06-22 01:30 pm 806.0--
2024-06-22 01:20 pm 920.0--
2024-06-22 01:10 pm 876.0--
2024-06-22 01:00 pm 896.0--
2024-06-22 12:50 pm 916.0--
2024-06-22 12:40 pm 899.0--
2024-06-22 12:30 pm 830.0--
2024-06-22 12:20 pm 652.8--
2024-06-22 12:10 pm 854.0--
2024-06-22 12:00 pm 928.0--
2024-06-22 11:50 am 919.0--
2024-06-22 11:40 am 820.0--
2024-06-22 11:30 am 856.0--
2024-06-22 11:20 am 825.0--
2024-06-22 11:10 am 800.0--
2024-06-22 11:00 am 797.2--
2024-06-22 10:50 am 794.9--
2024-06-22 10:40 am 783.3--
2024-06-22 10:30 am 782.4--
2024-06-22 10:20 am 669.3--
2024-06-22 10:10 am 339.1--
2024-06-22 10:00 am 540.3--
2024-06-22 09:50 am 554.8--
2024-06-22 09:40 am 518.0--
2024-06-22 09:30 am 561.1--
2024-06-22 09:20 am 517.5--
2024-06-22 09:10 am 493.0--
2024-06-22 09:00 am 458.7--
2024-06-22 08:50 am 332.1--
2024-06-22 08:40 am 317.3--
2024-06-22 08:30 am 273.0--
2024-06-22 08:20 am 347.7--
2024-06-22 08:10 am 326.4--
2024-06-22 08:00 am 305.7--
2024-06-22 07:50 am 251.0--
2024-06-22 07:40 am 219.2--
2024-06-22 07:30 am 186.0--
2024-06-22 07:20 am 163.2--
2024-06-22 07:10 am 118.8--
2024-06-22 06:50 am 85.9--
2024-06-22 06:40 am 69.1--
2024-06-22 06:30 am 43.9--
2024-06-22 06:20 am 26.8--
2024-06-22 06:10 am 13.3--
2024-06-22 06:00 am 6.2--
2024-06-22 05:40 am 0.3--
2024-06-22 05:30 am 0.0--
2024-06-22 05:20 am 0.0--
2024-06-22 05:10 am 0.0--
2024-06-22 05:00 am 0.0--
2024-06-22 04:50 am 0.0--
2024-06-22 04:40 am 0.0--
2024-06-22 04:30 am 0.0--
2024-06-22 04:20 am 0.0--
2024-06-22 04:10 am 0.0--
2024-06-22 04:00 am 0.0--
2024-06-22 03:50 am 0.0--
2024-06-22 03:40 am 0.0--
2024-06-22 03:30 am 0.0--
2024-06-22 03:20 am 0.0--
2024-06-22 03:10 am 0.0--
2024-06-22 03:00 am 0.0--
2024-06-22 02:50 am 0.0--
2024-06-22 02:40 am 0.0--
2024-06-22 02:30 am 0.0--
2024-06-22 02:20 am 0.0--
2024-06-22 02:10 am 0.0--
2024-06-22 02:00 am 0.0--
2024-06-22 01:50 am 0.0--
2024-06-22 01:40 am 0.0--
2024-06-22 01:30 am 0.0--
2024-06-22 01:20 am 0.0--
2024-06-22 01:10 am 0.0--
2024-06-22 01:00 am 0.0--
2024-06-22 12:50 am 0.0--
2024-06-22 12:40 am 0.0--
2024-06-22 12:30 am 0.0--
2024-06-22 12:20 am 0.0--
2024-06-22 12:10 am 0.0--
2024-06-22 12:00 am 0.0--
2024-06-21 11:50 pm 0.0--
2024-06-21 11:40 pm 0.0--
2024-06-21 11:30 pm 0.0--
2024-06-21 11:20 pm 0.0--
2024-06-21 11:10 pm 0.0--
2024-06-21 11:00 pm 0.0--
2024-06-21 10:50 pm 0.0--
2024-06-21 10:40 pm 0.0--
2024-06-21 10:30 pm 0.0--
2024-06-21 10:20 pm 0.0--
2024-06-21 10:10 pm 0.0--
2024-06-21 10:00 pm 0.0--
2024-06-21 09:50 pm 0.0--
2024-06-21 09:40 pm 0.1--
2024-06-21 09:30 pm 0.5--
2024-06-21 09:20 pm 1.9--
2024-06-21 09:10 pm 4.6--
2024-06-21 09:00 pm 9.7--
2024-06-21 08:50 pm 17.4--
2024-06-21 08:40 pm 24.6--
2024-06-21 08:30 pm 37.9--
2024-06-21 08:20 pm 58.0--
2024-06-21 08:10 pm 98.9--
2024-06-21 08:00 pm 152.9--
2024-06-21 07:50 pm 182.9--
2024-06-21 07:40 pm 213.2--
2024-06-21 07:30 pm 237.2--
2024-06-21 07:20 pm 263.9--
2024-06-21 07:10 pm 295.8--
2024-06-21 07:00 pm 324.3--
2024-06-21 06:50 pm 359.5--
2024-06-21 06:40 pm 388.9--
2024-06-21 06:30 pm 419.1--
2024-06-21 06:20 pm 452.0--
2024-06-21 06:10 pm 478.9--
2024-06-21 06:00 pm 509.4--
2024-06-21 05:50 pm 540.2--
2024-06-21 05:40 pm 567.0--
2024-06-21 05:30 pm 599.6--
2024-06-21 05:20 pm 643.9--
2024-06-21 05:10 pm 586.7--
2024-06-21 05:00 pm 522.6--
2024-06-21 04:50 pm 557.3--
2024-06-21 04:40 pm 343.2--
2024-06-21 04:30 pm 345.2--
2024-06-21 04:20 pm 444.0--
2024-06-21 04:10 pm 412.7--
2024-06-21 04:00 pm 336.7--
2024-06-21 03:50 pm 461.9--
2024-06-21 03:40 pm 599.4--
2024-06-21 03:30 pm 775.6--
2024-06-21 03:20 pm 861.0--
2024-06-21 03:10 pm 920.0--
2024-06-21 03:00 pm 924.0--
2024-06-21 02:50 pm 920.0--
2024-06-21 02:40 pm 936.0--
2024-06-21 02:30 pm 935.0--
2024-06-21 02:20 pm 929.0--
2024-06-21 02:10 pm 854.0--
2024-06-21 02:00 pm 921.0--
2024-06-21 01:50 pm 906.0--